KLM43C EHAM-EGPF

Flight info

Callsign KLM43C
Flight time 1h 18m
Altitude 40000
Route BERGI L602 SUPUR P1 GODOS DCT ROXAT DCT BAZNA DCT ANMAZ DCT EWOKE DCT AGPED
Aircraft B77W/H-SDE1E2E3FGHIJ2J3J4J5M1RWXY/LB1D1

Departure

Time 2026-05-07 10:03
Airport Amsterdam Airport Schiphol (EHAM)

Arrival

Time 2026-05-07 11:21
Airport Glasgow Airport (EGPF)
Time Latitude Longitude Altitude Speed Heading
2026-05-07 09:16 52.30638 4.76668 2 ft 0 kts 237°
2026-05-07 09:49 52.30647 4.76689 3 ft 2 kts 235°
2026-05-07 09:49 52.30657 4.76710 5 ft 2 kts 227°
2026-05-07 09:50 52.30670 4.76728 4 ft 2 kts 189°
2026-05-07 09:50 52.30685 4.76721 4 ft 2 kts 146°
2026-05-07 09:50 52.30699 4.76707 6 ft 2 kts 148°
2026-05-07 09:50 52.30703 4.76703 6 ft 0 kts 148°
2026-05-07 09:52 52.30689 4.76717 4 ft 10 kts 148°
2026-05-07 09:52 52.30625 4.76824 2 ft 12 kts 126°
2026-05-07 09:53 52.30533 4.76940 2 ft 18 kts 152°
2026-05-07 09:53 52.30432 4.76874 2 ft 17 kts 236°
2026-05-07 09:53 52.30369 4.76714 2 ft 17 kts 237°
2026-05-07 09:53 52.30307 4.76549 2 ft 18 kts 238°
2026-05-07 09:54 52.30239 4.76373 2 ft 21 kts 237°
2026-05-07 09:54 52.30132 4.76096 2 ft 28 kts 238°
2026-05-07 09:54 52.30036 4.75846 2 ft 26 kts 238°
2026-05-07 09:54 52.29939 4.75593 2 ft 26 kts 238°
2026-05-07 09:55 52.29852 4.75352 2 ft 24 kts 248°
2026-05-07 09:55 52.29890 4.75105 2 ft 24 kts 310°
2026-05-07 09:55 52.29999 4.74900 2 ft 24 kts 311°
2026-05-07 09:55 52.30110 4.74696 2 ft 24 kts 311°
2026-05-07 09:56 52.30215 4.74500 2 ft 18 kts 309°
2026-05-07 09:56 52.30278 4.74383 2 ft 13 kts 312°
2026-05-07 09:56 52.30329 4.74272 2 ft 5 kts 299°
2026-05-07 09:56 52.30342 4.74228 2 ft 7 kts 288°
2026-05-07 09:57 52.30325 4.74076 2 ft 15 kts 241°
2026-05-07 09:57 52.30266 4.73976 2 ft 9 kts 218°
2026-05-07 09:57 52.30241 4.73943 2 ft 0 kts 219°
2026-05-07 10:00 52.30195 4.73864 1 ft 17 kts 244°
2026-05-07 10:00 52.30252 4.73744 -1 ft 16 kts 354°
2026-05-07 10:00 52.30291 4.73744 -2 ft 2 kts
2026-05-07 10:00 52.30298 4.73744 -2 ft 0 kts
2026-05-07 10:02 52.30417 4.73754 0 ft 70 kts
2026-05-07 10:02 52.31314 4.73836 56 ft 175 kts
2026-05-07 10:03 52.32614 4.73687 924 ft 193 kts 342°
2026-05-07 10:03 52.33882 4.72838 2211 ft 201 kts 338°
2026-05-07 10:03 52.35183 4.71880 3582 ft 208 kts 336°
2026-05-07 10:03 52.36521 4.70845 4865 ft 220 kts 335°
2026-05-07 10:04 52.37987 4.69659 5742 ft 253 kts 333°
2026-05-07 10:04 52.39664 4.68247 6188 ft 275 kts 332°
2026-05-07 10:04 52.41341 4.66790 6152 ft 269 kts 332°
2026-05-07 10:04 52.42968 4.65345 6350 ft 267 kts 331°
2026-05-07 10:05 52.44605 4.63869 7330 ft 271 kts 331°
2026-05-07 10:05 52.46268 4.62358 8624 ft 276 kts 330°
2026-05-07 10:05 52.47963 4.60815 9912 ft 281 kts 330°
2026-05-07 10:05 52.49707 4.59218 10902 ft 296 kts 330°
2026-05-07 10:06 52.51601 4.57477 11405 ft 329 kts 330°
2026-05-07 10:06 52.53671 4.55571 12128 ft 349 kts 330°
2026-05-07 10:06 52.55806 4.53604 13385 ft 354 kts 330°
2026-05-07 10:06 52.57961 4.51617 14664 ft 357 kts 330°
2026-05-07 10:07 52.60141 4.49603 15817 ft 363 kts 330°
2026-05-07 10:07 52.62365 4.47545 16925 ft 371 kts 330°
2026-05-07 10:07 52.64638 4.45439 18040 ft 378 kts 330°
2026-05-07 10:07 52.66950 4.43295 19076 ft 384 kts 329°
2026-05-07 10:08 52.69293 4.41119 20085 ft 390 kts 330°
2026-05-07 10:08 52.71672 4.38903 21088 ft 393 kts 329°
2026-05-07 10:08 52.73919 4.36262 21906 ft 403 kts 318°
2026-05-07 10:08 52.75864 4.32906 22082 ft 407 kts 308°
2026-05-07 10:09 52.77387 4.28999 22107 ft 404 kts 299°
2026-05-07 10:09 52.78748 4.24903 22497 ft 409 kts 298°
2026-05-07 10:09 52.80111 4.20742 23489 ft 414 kts 298°
2026-05-07 10:09 52.81478 4.16585 24371 ft 418 kts 298°
2026-05-07 10:10 52.82882 4.12348 25205 ft 422 kts 299°
2026-05-07 10:10 52.84309 4.08071 25971 ft 428 kts 299°
2026-05-07 10:10 52.85760 4.03736 26709 ft 434 kts 300°
2026-05-07 10:10 52.87232 3.99343 27449 ft 439 kts 300°
2026-05-07 10:11 52.88723 3.94892 28072 ft 444 kts 300°
2026-05-07 10:11 52.91732 3.85881 28104 ft 446 kts 300°
2026-05-07 10:11 52.93236 3.81364 28413 ft 450 kts 300°
2026-05-07 10:12 52.94757 3.76785 29181 ft 454 kts 300°
2026-05-07 10:12 52.96281 3.72188 29961 ft 457 kts 300°
2026-05-07 10:12 52.97825 3.67527 30109 ft 465 kts 300°
2026-05-07 10:13 53.01354 3.58693 30096 ft 457 kts 317°
2026-05-07 10:13 53.03837 3.55443 30102 ft 454 kts 329°
2026-05-07 10:13 53.06666 3.53154 30101 ft 451 kts 342°
2026-05-07 10:14 53.12646 3.49967 30111 ft 452 kts 343°
2026-05-07 10:14 53.18637 3.46620 30108 ft 454 kts 342°
2026-05-07 10:15 53.24285 3.42050 30108 ft 455 kts 323°
2026-05-07 10:15 53.28499 3.34190 30113 ft 458 kts 303°
2026-05-07 10:16 53.31845 3.25168 30118 ft 459 kts 303°
2026-05-07 10:16 53.35239 3.16134 30105 ft 459 kts 303°
2026-05-07 10:17 53.38677 3.07145 30107 ft 458 kts 303°
2026-05-07 10:17 53.42214 2.98290 30105 ft 456 kts 309°
2026-05-07 10:18 53.46318 2.90199 30109 ft 455 kts 311°
2026-05-07 10:18 53.50474 2.82196 30107 ft 454 kts 311°
2026-05-07 10:18 53.52557 2.78153 30453 ft 459 kts 311°
2026-05-07 10:19 53.54652 2.74058 31066 ft 462 kts 311°
2026-05-07 10:19 53.56743 2.69952 31672 ft 463 kts 311°
2026-05-07 10:19 53.58845 2.65808 32185 ft 467 kts 311°
2026-05-07 10:19 53.60940 2.61670 32623 ft 471 kts 311°
2026-05-07 10:20 53.63101 2.57391 33022 ft 475 kts 311°
2026-05-07 10:20 53.65245 2.53137 33424 ft 478 kts 311°
2026-05-07 10:20 53.67374 2.48905 33853 ft 480 kts 311°
2026-05-07 10:20 53.69530 2.44613 34390 ft 478 kts 311°
2026-05-07 10:21 53.71678 2.40329 34886 ft 477 kts 310°
2026-05-07 10:21 53.73817 2.36058 35341 ft 476 kts 310°
2026-05-07 10:21 53.75957 2.31778 35763 ft 476 kts 310°
2026-05-07 10:21 53.78095 2.27494 36202 ft 476 kts 310°
2026-05-07 10:22 53.80208 2.23255 36613 ft 475 kts 309°
2026-05-07 10:22 53.82337 2.18974 37037 ft 475 kts 309°
2026-05-07 10:22 53.84464 2.14691 37421 ft 476 kts 309°
2026-05-07 10:22 53.86600 2.10382 37789 ft 476 kts 309°
2026-05-07 10:23 53.88734 2.06069 38185 ft 476 kts 309°
2026-05-07 10:23 53.90860 2.01765 38560 ft 476 kts 309°
2026-05-07 10:23 53.92989 1.97447 38897 ft 476 kts 309°
2026-05-07 10:23 53.94395 1.94590 39075 ft 477 kts 308°
2026-05-07 10:24 53.97235 1.88814 39445 ft 477 kts 308°
2026-05-07 10:24 53.98641 1.85948 39613 ft 477 kts 308°
2026-05-07 10:24 54.00768 1.81607 39880 ft 477 kts 308°
2026-05-07 10:24 54.02892 1.77263 40041 ft 480 kts 308°
2026-05-07 10:25 54.05734 1.71439 40102 ft 483 kts 308°
2026-05-07 10:25 54.09323 1.64066 40106 ft 480 kts 308°
2026-05-07 10:26 54.13549 1.55358 40113 ft 475 kts 308°
2026-05-07 10:26 54.17663 1.46661 40117 ft 472 kts 304°
2026-05-07 10:27 54.20990 1.37036 40119 ft 470 kts 295°
2026-05-07 10:27 54.23843 1.26968 40118 ft 470 kts 294°
2026-05-07 10:28 54.26686 1.16867 40114 ft 472 kts 294°
2026-05-07 10:28 54.29560 1.06751 40112 ft 473 kts 294°
2026-05-07 10:29 54.32441 0.96628 40114 ft 473 kts 294°
2026-05-07 10:29 54.35321 0.86470 40111 ft 474 kts 294°
2026-05-07 10:30 54.39624 0.71203 40103 ft 474 kts 294°
2026-05-07 10:30 54.42456 0.61104 40085 ft 457 kts 294°
2026-05-07 10:31 54.43789 0.56337 40081 ft 442 kts 294°
2026-05-07 10:31 54.45116 0.51579 40093 ft 433 kts 294°
2026-05-07 10:31 54.47706 0.42249 40102 ft 435 kts 294°
2026-05-07 10:32 54.50287 0.32922 40084 ft 428 kts 294°
2026-05-07 10:32 54.52827 0.23707 40082 ft 424 kts 294°
2026-05-07 10:33 54.55343 0.14549 40095 ft 423 kts 293°
2026-05-07 10:33 54.57967 0.05472 40094 ft 423 kts 296°
2026-05-07 10:34 54.60701 -0.03525 40091 ft 424 kts 296°
2026-05-07 10:34 54.63427 -0.12560 40093 ft 425 kts 295°
2026-05-07 10:35 54.66280 -0.21441 40092 ft 428 kts 303°
2026-05-07 10:35 54.69930 -0.29621 40092 ft 430 kts 307°
2026-05-07 10:36 54.73744 -0.37652 40092 ft 432 kts 307°
2026-05-07 10:36 54.77579 -0.45682 40090 ft 433 kts 307°
2026-05-07 10:37 54.81418 -0.53711 40073 ft 433 kts 307°
2026-05-07 10:37 54.85255 -0.61741 39888 ft 434 kts 307°
2026-05-07 10:38 54.87187 -0.65784 39402 ft 434 kts 307°
2026-05-07 10:38 54.89088 -0.69760 38874 ft 424 kts 307°
2026-05-07 10:38 54.90963 -0.73675 38372 ft 417 kts 307°
2026-05-07 10:38 54.92815 -0.77543 38207 ft 421 kts 307°
2026-05-07 10:39 54.94707 -0.81500 38084 ft 428 kts 307°
2026-05-07 10:39 54.96611 -0.85487 38075 ft 429 kts 307°
2026-05-07 10:39 55.00331 -0.93276 37408 ft 409 kts 307°
2026-05-07 10:40 55.02153 -0.97088 36299 ft 410 kts 307°
2026-05-07 10:40 55.03983 -1.00924 35097 ft 413 kts 307°
2026-05-07 10:40 55.05841 -1.04839 34126 ft 424 kts 307°
2026-05-07 10:40 55.07721 -1.08814 33429 ft 424 kts 307°
2026-05-07 10:41 55.09577 -1.12747 32817 ft 422 kts 307°
2026-05-07 10:41 55.11458 -1.16734 32275 ft 420 kts 307°
2026-05-07 10:41 55.13323 -1.20690 32101 ft 426 kts 307°
2026-05-07 10:41 55.15212 -1.24701 32051 ft 426 kts 307°
2026-05-07 10:42 55.16883 -1.28894 32016 ft 419 kts 293°
2026-05-07 10:42 55.17741 -1.33749 32044 ft 418 kts 277°
2026-05-07 10:42 55.18402 -1.43838 32039 ft 420 kts 283°
2026-05-07 10:43 55.20247 -1.53543 31979 ft 417 kts 287°
2026-05-07 10:43 55.21165 -1.58317 31632 ft 410 kts 287°
2026-05-07 10:43 55.22058 -1.63075 30909 ft 412 kts 287°
2026-05-07 10:44 55.22933 -1.67823 30096 ft 416 kts 286°
2026-05-07 10:44 55.23817 -1.72666 29210 ft 418 kts 286°
2026-05-07 10:44 55.24692 -1.77487 28772 ft 410 kts 286°
2026-05-07 10:44 55.25544 -1.82195 28462 ft 400 kts 286°
2026-05-07 10:45 55.26375 -1.86792 28195 ft 390 kts 286°
2026-05-07 10:45 55.27181 -1.91266 27867 ft 379 kts 286°
2026-05-07 10:45 55.27965 -1.95623 27134 ft 373 kts 286°
2026-05-07 10:45 55.28744 -1.99976 26473 ft 376 kts 286°
2026-05-07 10:46 55.29529 -2.04365 25976 ft 374 kts 286°
2026-05-07 10:46 55.30303 -2.08707 25566 ft 370 kts 286°
2026-05-07 10:46 55.31067 -2.12998 25156 ft 367 kts 286°
2026-05-07 10:46 55.31825 -2.17264 24719 ft 364 kts 286°
2026-05-07 10:47 55.32565 -2.21441 24297 ft 362 kts 286°
2026-05-07 10:47 55.33308 -2.25643 24048 ft 363 kts 286°
2026-05-07 10:47 55.34062 -2.29916 24011 ft 364 kts 286°
2026-05-07 10:47 55.34806 -2.34144 24004 ft 361 kts 286°
2026-05-07 10:48 55.35545 -2.38350 23997 ft 359 kts 285°
2026-05-07 10:48 55.36279 -2.42543 23977 ft 358 kts 285°
2026-05-07 10:48 55.37009 -2.46715 23712 ft 356 kts 285°
2026-05-07 10:48 55.37734 -2.50872 23259 ft 354 kts 285°
2026-05-07 10:49 55.38453 -2.55007 22753 ft 352 kts 285°
2026-05-07 10:49 55.39164 -2.59106 22250 ft 350 kts 285°
2026-05-07 10:49 55.39873 -2.63200 21773 ft 348 kts 285°
2026-05-07 10:49 55.40574 -2.67256 21309 ft 346 kts 285°
2026-05-07 10:50 55.41271 -2.71298 20864 ft 343 kts 285°
2026-05-07 10:50 55.41959 -2.75296 20327 ft 341 kts 285°
2026-05-07 10:50 55.42643 -2.79285 20126 ft 345 kts 285°
2026-05-07 10:50 55.43339 -2.83352 19989 ft 346 kts 285°
2026-05-07 10:51 55.44028 -2.87373 19986 ft 341 kts 286°
2026-05-07 10:51 55.44824 -2.91282 19983 ft 338 kts 290°
2026-05-07 10:51 55.45715 -2.95125 19985 ft 340 kts 291°
2026-05-07 10:51 55.46626 -2.98974 19989 ft 341 kts 291°
2026-05-07 10:52 55.47548 -3.02842 19983 ft 343 kts 291°
2026-05-07 10:52 55.48472 -3.06714 19928 ft 338 kts 291°
2026-05-07 10:52 55.49379 -3.10496 19391 ft 330 kts 291°
2026-05-07 10:52 55.50268 -3.14199 18642 ft 326 kts 291°
2026-05-07 10:53 55.51148 -3.17876 17724 ft 325 kts 291°
2026-05-07 10:53 55.52024 -3.21553 16753 ft 325 kts 291°
2026-05-07 10:53 55.52892 -3.25218 15871 ft 322 kts 291°
2026-05-07 10:53 55.53745 -3.28850 15340 ft 321 kts 291°
2026-05-07 10:54 55.54583 -3.32429 14993 ft 310 kts 291°
2026-05-07 10:54 55.55401 -3.35909 14426 ft 303 kts 292°
2026-05-07 10:54 55.56235 -3.39224 13903 ft 295 kts 293°
2026-05-07 10:54 55.57076 -3.42476 13313 ft 288 kts 294°
2026-05-07 10:55 55.57905 -3.45682 12634 ft 285 kts 294°
2026-05-07 10:55 55.58722 -3.48863 11928 ft 284 kts 294°
2026-05-07 10:55 55.59544 -3.52083 11421 ft 288 kts 294°
2026-05-07 10:55 55.60360 -3.55296 11145 ft 284 kts 293°
2026-05-07 10:56 55.61164 -3.58471 10844 ft 281 kts 294°
2026-05-07 10:56 55.61961 -3.61626 10511 ft 280 kts 294°
2026-05-07 10:56 55.62753 -3.64766 10172 ft 279 kts 293°
2026-05-07 10:56 55.63542 -3.67908 9835 ft 279 kts 294°
2026-05-07 10:57 55.64329 -3.71038 9459 ft 278 kts 294°
2026-05-07 10:57 55.65114 -3.74163 9125 ft 276 kts 294°
2026-05-07 10:57 55.65892 -3.77268 8804 ft 275 kts 294°
2026-05-07 10:57 55.66652 -3.80309 8477 ft 273 kts 294°
2026-05-07 10:58 55.67411 -3.83346 8163 ft 272 kts 294°
2026-05-07 10:58 55.68177 -3.86410 7997 ft 265 kts 294°
2026-05-07 10:58 55.68920 -3.89395 7968 ft 266 kts 294°
2026-05-07 10:58 55.69675 -3.92431 7972 ft 270 kts 294°
2026-05-07 10:59 55.70753 -3.95130 7959 ft 274 kts 319°
2026-05-07 10:59 55.72392 -3.96763 7979 ft 276 kts 338°
2026-05-07 10:59 55.74191 -3.97966 7963 ft 276 kts 339°
2026-05-07 10:59 55.75965 -3.99127 7656 ft 269 kts 339°
2026-05-07 11:00 55.77674 -4.00240 7157 ft 268 kts 339°
2026-05-07 11:00 55.78996 -4.01097 6747 ft 268 kts 339°
2026-05-07 11:00 55.80664 -4.02172 6257 ft 268 kts 339°
2026-05-07 11:00 55.82486 -4.03342 6100 ft 271 kts 339°
2026-05-07 11:01 55.84264 -4.04486 5993 ft 270 kts 339°
2026-05-07 11:01 55.86016 -4.05616 5996 ft 267 kts 339°
2026-05-07 11:01 55.87709 -4.06707 5900 ft 255 kts 339°
2026-05-07 11:01 55.89352 -4.07762 5552 ft 242 kts 339°
2026-05-07 11:02 55.90916 -4.08763 5092 ft 237 kts 339°
2026-05-07 11:02 55.92465 -4.09758 4544 ft 236 kts 339°
2026-05-07 11:02 55.93998 -4.10765 3988 ft 235 kts 336°
2026-05-07 11:02 55.95288 -4.12431 3591 ft 236 kts 305°
2026-05-07 11:03 55.96043 -4.15060 3549 ft 239 kts 291°
2026-05-07 11:03 55.96471 -4.17861 3487 ft 233 kts 269°
2026-05-07 11:03 55.96307 -4.20707 3319 ft 228 kts 259°
2026-05-07 11:03 55.96062 -4.23487 2942 ft 227 kts 259°
2026-05-07 11:04 55.95760 -4.26259 2487 ft 227 kts 248°
2026-05-07 11:04 55.94939 -4.28597 2235 ft 215 kts 230°
2026-05-07 11:04 55.94023 -4.30530 2096 ft 196 kts 225°
2026-05-07 11:04 55.93116 -4.32241 2061 ft 186 kts 224°
2026-05-07 11:05 55.92242 -4.33875 1991 ft 177 kts 224°
2026-05-07 11:05 55.91424 -4.35419 1874 ft 170 kts 225°
2026-05-07 11:05 55.90599 -4.36986 1327 ft 174 kts 223°
2026-05-07 11:05 55.89780 -4.38483 1051 ft 152 kts 224°
2026-05-07 11:06 55.89046 -4.39849 1574 ft 154 kts 224°
2026-05-07 11:06 55.88263 -4.41322 2084 ft 183 kts 225°
2026-05-07 11:06 55.87381 -4.42979 1975 ft 179 kts 224°
2026-05-07 11:06 55.86553 -4.44527 1888 ft 164 kts 221°
2026-05-07 11:07 55.85578 -4.45447 1748 ft 168 kts 182°
2026-05-07 11:07 55.84332 -4.45480 1953 ft 192 kts 179°
2026-05-07 11:07 55.82973 -4.45503 2094 ft 199 kts 179°
2026-05-07 11:07 55.81576 -4.45528 2826 ft 198 kts 179°
2026-05-07 11:08 55.80431 -4.45543 3354 ft 198 kts 179°
2026-05-07 11:08 55.79035 -4.45541 3492 ft 203 kts 179°
2026-05-07 11:08 55.77631 -4.45526 3505 ft 201 kts 179°
2026-05-07 11:08 55.76243 -4.45505 3493 ft 198 kts 179°
2026-05-07 11:09 55.75329 -4.45487 3508 ft 198 kts 179°
2026-05-07 11:09 55.73939 -4.45459 3509 ft 204 kts 179°
2026-05-07 11:09 55.71971 -4.45232 3492 ft 219 kts 162°
2026-05-07 11:09 55.70717 -4.43768 3504 ft 221 kts 129°
2026-05-07 11:10 55.70130 -4.41258 3479 ft 225 kts 96°
2026-05-07 11:10 55.70227 -4.39391 3505 ft 226 kts 77°
2026-05-07 11:10 55.70747 -4.36782 3517 ft 230 kts 70°
2026-05-07 11:10 55.71364 -4.34129 3517 ft 234 kts 69°
2026-05-07 11:11 55.71992 -4.31453 3477 ft 234 kts 69°
2026-05-07 11:11 55.72613 -4.28829 3481 ft 226 kts 69°
2026-05-07 11:11 55.73224 -4.26268 3488 ft 226 kts 69°
2026-05-07 11:11 55.73844 -4.23672 3502 ft 229 kts 69°
2026-05-07 11:12 55.74474 -4.21043 3506 ft 231 kts 69°
2026-05-07 11:12 55.75106 -4.18410 3504 ft 233 kts 69°
2026-05-07 11:12 55.75738 -4.15768 3505 ft 234 kts 69°
2026-05-07 11:12 55.76403 -4.13163 3473 ft 228 kts 59°
2026-05-07 11:13 55.77535 -4.11297 3505 ft 233 kts 26°
2026-05-07 11:13 55.79133 -4.10587 3511 ft 237 kts
2026-05-07 11:13 55.80794 -4.10331 3505 ft 238 kts
2026-05-07 11:13 55.82416 -4.10132 3475 ft 226 kts
2026-05-07 11:14 55.83912 -4.09956 3474 ft 212 kts
2026-05-07 11:14 55.85326 -4.09791 3516 ft 196 kts
2026-05-07 11:14 55.86699 -4.09636 3518 ft 198 kts
2026-05-07 11:14 55.88072 -4.09480 3489 ft 196 kts
2026-05-07 11:15 55.89428 -4.09318 3480 ft 194 kts
2026-05-07 11:15 55.90755 -4.09159 3478 ft 192 kts
2026-05-07 11:15 55.92097 -4.08996 3476 ft 191 kts
2026-05-07 11:15 55.93421 -4.08834 3505 ft 195 kts
2026-05-07 11:16 55.94789 -4.08679 3506 ft 198 kts 359°
2026-05-07 11:16 55.96077 -4.09371 3477 ft 194 kts 321°
2026-05-07 11:16 55.96812 -4.11280 3490 ft 186 kts 281°
2026-05-07 11:16 55.96993 -4.13534 3503 ft 185 kts 274°
2026-05-07 11:17 55.97149 -4.15840 3508 ft 188 kts 274°
2026-05-07 11:17 55.97311 -4.18126 3420 ft 185 kts 274°
2026-05-07 11:17 55.97464 -4.20409 3157 ft 185 kts 271°
2026-05-07 11:17 55.97384 -4.22667 3032 ft 180 kts 259°
2026-05-07 11:18 55.97100 -4.24822 2982 ft 177 kts 238°
2026-05-07 11:18 55.96270 -4.26387 2920 ft 175 kts 220°
2026-05-07 11:18 55.95423 -4.27897 2787 ft 168 kts 224°
2026-05-07 11:18 55.94638 -4.29378 2538 ft 161 kts 224°
2026-05-07 11:19 55.93874 -4.30821 2241 ft 162 kts 224°
2026-05-07 11:19 55.93091 -4.32313 1810 ft 164 kts 224°
2026-05-07 11:19 55.92317 -4.33744 1397 ft 161 kts 223°
2026-05-07 11:19 55.91564 -4.35154 1035 ft 149 kts 224°
2026-05-07 11:20 55.90883 -4.36435 795 ft 137 kts 223°
2026-05-07 11:20 55.90225 -4.37654 705 ft 136 kts 223°
2026-05-07 11:20 55.89567 -4.38900 589 ft 139 kts 223°
2026-05-07 11:20 55.88912 -4.40147 380 ft 135 kts 221°
2026-05-07 11:21 55.88263 -4.41332 179 ft 135 kts 223°
2026-05-07 11:21 55.87610 -4.42557 45 ft 136 kts 223°
2026-05-07 11:21 55.87145 -4.43409 40 ft 34 kts 227°
2026-05-07 11:21 55.87016 -4.43605 41 ft 12 kts 210°
2026-05-07 11:22 55.86926 -4.43680 37 ft 17 kts 199°
2026-05-07 11:22 55.86856 -4.43725 35 ft 7 kts 199°
2026-05-07 11:22 55.86837 -4.43736 35 ft 0 kts 199°
2026-05-07 11:24 55.86832 -4.43740 35 ft 6 kts 199°
2026-05-07 11:24 55.86767 -4.43780 33 ft 12 kts 199°
2026-05-07 11:24 55.86689 -4.43843 33 ft 12 kts 214°
2026-05-07 11:24 55.86633 -4.43939 35 ft 10 kts 226°
2026-05-07 11:25 55.86580 -4.44022 36 ft 10 kts 205°
2026-05-07 11:25 55.86530 -4.43977 36 ft 8 kts 94°
2026-05-07 11:25 55.86541 -4.43939 36 ft 3 kts 52°
2026-05-07 11:25 55.86550 -4.43913 36 ft 2 kts 59°
2026-05-07 11:26 55.86554 -4.43903 36 ft 0 kts 60°